Retour au catalogue

COSMOS 2554

ActifNavigationLEO
NORAD 52202·PAYLOAD·🇷🇺 Russia

Lancé Apr 7, 2022 depuis Plesetsk Cosmodrome

Loading…

Prochains Passages (prochaines 24 heures)

TLE

FraisSource: Space-Track

Époque: Sep 14, 2026, 22:14 UTC

1 52202U 22036A   26257.92647137 -.00000057  00000-0  13014-4 0  9991
2 52202  67.1507  10.5833 0004932 273.9730  86.0790 13.96673652226488

Suivez COSMOS 2554 en temps réel avec AllMySat

Download on the App Store